Regional Weather Roundup
Issued by NWS

Home | Current Version | Previous Version | Text Only | Print | Product List | Glossary Off
Versions: 1 2 3 4 5 6 7 8 9 10 11 12 13 14 15 16 17 18 19 20 21 22 23 24 25 26 27 28 29 30 31 32 33 34 35 36 37 38 39 40 41 42 43 44 45 46 47 48 49 50

000
ASUS43 KDMX 060304
RWRIA

WEATHER ROUNDUP FOR IOWA
NATIONAL WEATHER SERVICE DES MOINES IA
  ISSUED BY NWS QUAD CITIES IA IL
900 PM CST THU MAR 05 2015

NOTE: "FAIR" INDICATES FEW OR NO CLOUDS BELOW 12,000 FEET WITH NO
SIGNIFICANT WEATHER AND/OR OBSTRUCTIONS TO VISIBILITY.

* - THESE STATIONS ARE NOT NWS STATIONS...THUS NOT UNDER NWS
QUALITY CONTROL.  THEY ALSO DO NOT REPORT WEATHER SUCH
AS PRECIPITATION OR FOG.

IAZ001>003-012>014-020>022-031>034-043>046-060400-
   NORTHWEST IOWA

CITY           SKY/WX    TMP DP  RH WIND       PRES   REMARKS
CARROLL *      CLEAR     14   5  67 SE7       30.38F WCI   4
CHEROKEE *     FAIR      17   7  65 S10       30.32F WCI   4
DENNISON *     CLEAR     19   5  53 S15       30.33F WCI   5
LE MARS *      PTCLDY    21   9  58 S12       30.29F WCI   9
ORANGE CITY *  CLEAR     19   7  58 S9        30.27F WCI   9
SHELDON *      CLEAR     18   5  57 S16       30.26F WCI   3
SIOUX CITY     CLEAR     23   7  50 SE12      30.31F WCI  12
SPENCER        CLEAR     16   5  62 S14       30.31F WCI   2
STORM LAKE *   CLEAR     14   5  67 S14       30.32F WCI  -1
$$

IAZ055>058-069>071-079>083-090>094-060400-
   SOUTHWEST IOWA

CITY           SKY/WX    TMP DP  RH WIND       PRES   REMARKS
ATLANTIC *     CLEAR     21   5  49 S9        30.39F WCI  11
AUDUBON *      CLEAR     12   7  79 CALM      30.39F
CLARINDA *     CLEAR     19   5  53 S6        30.45F WCI  11
COUNCIL BLFS * CLEAR     23   7  50 S14       30.35F WCI  11
CRESTON *      PTCLDY    16   3  57 SE7       30.43S WCI   6
HARLAN *       CLEAR     19   7  58 S7        30.41F WCI  10
LAMONI         CLEAR     19   5  54 S5        30.46S WCI  12
RED OAK *      CLEAR     21   5  49 S7        30.41F WCI  13
SHENANDOAH *   CLEAR     21   5  49 SE10      30.42F WCI  10
$$

IAZ047>049-059>061-072>074-084-060400-
   CENTRAL IOWA

CITY           SKY/WX    TMP DP  RH WIND       PRES   REMARKS
AMES           CLEAR     10   2  69 SE7       30.45F WCI  -1
ANKENY *       CLEAR     14   3  62 SE7       30.47S WCI   4
BOONE *        CLEAR     10   3  72 SE9       30.42S WCI  -2
CHARITON *     CLEAR     16   5  62 SE8       30.47F WCI   5
DES MOINES     CLEAR     18   2  49 SE6       30.46F WCI  10
GRINNELL *     PTCLDY     6   0  74 SE6       30.48S WCI  -4
KNOXVILLE *    CLEAR     14   3  62 SE6       30.47S WCI   5
MARSHALLTOWN   PTCLDY     5  -2  72 SE8       30.46F WCI  -8
NEWTON *       PTCLDY     7   0  72 SE8       30.48S WCI  -6
PELLA *        CLEAR     12   6  76 SE6       30.51S WCI   2
PERRY *          N/A     13   6  73 SE8       30.44S WCI   2
$$

IAZ004>006-015-016-023>025-035-036-060400-
   NORTH CENTRAL IOWA

CITY           SKY/WX    TMP DP  RH WIND       PRES   REMARKS
ALGONA *       CLEAR     14   9  79 S17       30.36F WCI  -3
CLARION *      CLEAR      9   3  78 SE12      30.41F WCI  -6
ESTHERVILLE    CLEAR     13   5  70 S13       30.31F WCI  -2
FORT DODGE *   CLEAR     14   1  57 SE6       30.40F WCI   5
MASON CITY     PTCLDY     3  -3  76 S10       30.42F WCI -12
FOREST CITY *  FAIR       9   1  72 SE10      30.38F WCI  -6
WEBSTER CITY * CLEAR     12   3  67 SE10      30.40F WCI  -1
IOWA FALLS *   FAIR       3  -3  75 SE7       30.45S WCI  -9
$$

IAZ007>011-017>019-026>030-037>042-050>054-066-060400-
   NORTHEAST IOWA

CITY           SKY/WX    TMP DP  RH WIND       PRES   REMARKS
CEDAR RAPIDS   PTCLDY     0  -5  79 SE3       30.50F
CHARLES CITY * MOCLDY     0  -8  71 S10       30.45S WCI -17
CLINTON *      MOCLDY     3  -6  66 CALM      30.56S
DECORAH *      MOCLDY     1  -6  71 S6        30.44S WCI -10
DUBUQUE        MOCLDY    -1  -8  72 SW6       30.49S WCI -13
MONTICELLO *   PTCLDY    -6 -11  77 SE3       30.51F
OELWEIN *      PTCLDY    -2  -9  71 S6        30.48S WCI -14
WATERLOO       FAIR       2  -4  76 S6        30.48F WCI  -9
$$

IAZ064-065-067-068-078-060400-
   EAST CENTRAL IOWA

CITY           SKY/WX    TMP DP  RH WIND       PRES   REMARKS
DAVENPORT      PTCLDY     4  -5  66 S3        30.54F
IOWA CITY      PTCLDY     5  -1  76 SE6       30.55F WCI  -6
MT. PLEASANT * PTCLDY     5  -1  74 SE7       30.54F WCI  -7
MUSCATINE *    PTCLDY     7   1  78 CALM      30.57S
QUAD CITIES    MOCLDY     5  -3  69 CALM      30.56S
$$

IAZ062-063-075>077-085>089-095>099-060400-
   SOUTHEAST IOWA

CITY           SKY/WX    TMP DP  RH WIND       PRES   REMARKS
BURLINGTON     MOCLDY     8   0  69 SE5       30.55S WCI   0
FAIRFIELD *    PTCLDY     7  -2  66 SE6       30.53S WCI  -3
FORT MADISON * MOCLDY    10   1  67 SE3       30.55S
OSKALOOSA *    FAIR      11   5  75 SE7       30.50F WCI   0
CENTERVILLE *  FAIR      14   5  67 SE5       30.50R WCI   6
OTTUMWA        CLEAR      9   2  73 SE7       30.50F WCI  -2
WASHINGTON *   PTCLDY     9   3  78 SE8       30.53F WCI  -4
$$

ABBREVIATIONS USED IN REMARKS
   TC - TEMPERATURES IN CELSIUS
  WCI - WIND CHILL INDEX
   HX - HEAT INDEX
  VSB - VISIBILITY
$$


USA.gov is the U.S. government's official web portal to all federal, state and local government web resources and services.